SL-14 R/B (16792 NORAD) Tracking and Keplerian Element Data

This shows tracking and keplerian element data for the satellite.

Feedback or suggestion? Click here.




ElementValue
Catalog16792
NameSL-14 R/B
Epoch Orbit962
Epoch Day12.75129338
Epoch Year2024
RAAN102.8079
Inclination82.4827
Eccentricity0.0022623
Argument of Perigee308.5383
Mean Anonmoly51.3804
Mean Motion14.84115069
Decay Rate8.33E-06
L11 16792U 86046B 24012.75129338 .00000833 00000+0 96573-4 0 9993
L22 16792 82.4827 102.8079 0022623 308.5383 51.3804 14.84115069 9627



Live tracking and technical data element details for SL-14 R/B (NORAD 16792). SL-14 R/B can be tracked NOW for your location showing map with azimuth and elevation plus other details from your city location.







IsCatalogInMostPopularTable: catalog: 16792, numindb: 324
Update: records affected: 1



GetName: 16792 SL-14 R/B

Hit Count: updated at: Sun, 14 Apr 2024 23:46:14 GMT